This is the latest recevied weather packets stored in our database for station/object DL4MGC-10. If no packets are shown the sender has not sent any weather packets the latest 10 day(s).
| Time | Temp. | Humidity | Pressure | Rain* | Wind** | Luminosity | Snow |
|---|---|---|---|---|---|---|---|
| 1777715648 | 21.11° C | 52% | 1021.9 hPa | - | - | - | - |
| 1777714748 | 20.56° C | 51% | 1022.1 hPa | - | - | - | - |
| 1777713848 | 20.56° C | 52% | 1022.1 hPa | - | - | - | - |
| 1777712948 | 19.44° C | 52% | 1022.2 hPa | - | - | - | - |
| 1777712048 | 20° C | 56% | 1022.4 hPa | - | - | - | - |
| 1777711148 | 19.44° C | 55% | 1022.4 hPa | - | - | - | - |
| 1777710248 | 18.33° C | 57% | 1022.5 hPa | - | - | - | - |
| 1777709348 | 18.33° C | 69% | 1022.6 hPa | - | - | - | - |
| 1777708448 | 16.11° C | 57% | 1022.7 hPa | - | - | - | - |
| 1777707547 | 15.56° C | 58% | 1022.8 hPa | - | - | - | - |
| 1777706647 | 15° C | 62% | 1022.9 hPa | - | - | - | - |
| 1777705747 | 13.89° C | 63% | 1022.9 hPa | - | - | - | - |
| 1777704847 | 13.33° C | 64% | 1023 hPa | - | - | - | - |
| 1777703947 | 12.22° C | 67% | 1023 hPa | - | - | - | - |
| 1777703047 | 11.11° C | 69% | 1023 hPa | - | - | - | - |
| 1777702147 | 10.56° C | 71% | 1023 hPa | - | - | - | - |
| 1777701247 | 9.44° C | 72% | 1023 hPa | - | - | - | - |
| 1777700347 | 7.78° C | 76% | 1023.1 hPa | - | - | - | - |
| 1777699447 | 7.22° C | 76% | 1022.9 hPa | - | - | - | - |
| 1777698546 | 7.22° C | 77% | 1022.9 hPa | - | - | - | - |
| 1777697646 | 5.56° C | 81% | 1022.9 hPa | - | - | - | - |
| 1777696746 | 5.56° C | 82% | 1022.9 hPa | - | - | - | - |
| 1777695846 | 5.56° C | 82% | 1022.8 hPa | - | - | - | - |
| 1777694946 | 6.11° C | 81% | 1022.8 hPa | - | - | - | - |
| 1777694046 | 6.11° C | 78% | 1022.8 hPa | - | - | - | - |
* Rain since midnight (hover to see other rain measurements)
** Current wind speed in m/s (hover to see current wind gust speed)